[[{"header":{"parameterUnit":"m.s-1","parameterCategory":1,"la1":30.2991,"la2":30.254,"lo1":-89.0895,"lo2":-89.0444,"dy":0.0017,"dx":0.0017,"nx":28,"ny":28,"refTime":"2025-04-09T09:00:00:Z","depth":0,"parameterNumber":2,"parameterNumberName":"U-component_of_WINDS"},"data":[0,0,0,0,0,0,0,0,0,0,0,0,0,0,0,0,0,0,0,0,0,0,0,0,0,0,0,0,0,0,0,0,0,0,0,0,0,0,0,0,0,0,0,0,0,0,0,0,0,0,0,0,0,0,0,0,0,0,0.6512,0.6513,0,0.6535,0.6536,0.6536,0.6546,0.6546,0.6546,0.6546,0.6568,0.6569,0.6569,0,0,0,0,0,0,0,0,0,0,0,0,0,0.6477,0.6478,0.6512,0.6513,0.6513,0.6535,0.6536,0.6536,0.6546,0.6546,0.6546,0.6546,0.6568,0.6569,0.6569,0,0,0,0,0,0,0,0,0,0,0,0,0,0.6495,0.6478,0.6512,0.6521,0.6522,0.6535,0.6536,0.6536,0.6546,0.6546,0.6546,0.6546,0.6568,0.6569,0.6569,0.6576,0,0,0.6572,0.6573,0,0,0,0,0,0,0,0,0.6494,0.6497,0.6519,0.652,0.6521,0.6538,0.6531,0.6549,0.6546,0.6537,0.6546,0.6546,0.6558,0.656,0.6564,0.6577,0.6578,0.6572,0.6573,0.6573,0.6573,0,0,0,0,0,0,0,0.6493,0.6496,0.6521,0.652,0.6521,0.6523,0.6526,0.6535,0.6547,0.6538,0.6538,0.6541,0.6559,0.6563,0.6565,0.6578,0.6572,0.6573,0.6574,0.6574,0.6598,0.6598,0,0,0,0,0,0,0.6491,0.6495,0.6521,0.6522,0.6508,0.6524,0.6527,0.6533,0.6547,0.6549,0.6541,0.6541,0.6562,0.6563,0.6565,0.6574,0.6573,0.6574,0.6575,0.6598,0.6598,0.6598,0,0,0,0,0,0,0.649,0.6493,0.652,0.6509,0.6512,0.6525,0.6531,0.6533,0.6538,0.655,0.6552,0.6543,0.6562,0.6564,0.6573,0.6575,0.6574,0.6575,0.6598,0.6598,0.6598,0.6591,0,0,0,0,0,0,0.6489,0.6492,0.6495,0.6509,0.6513,0.6527,0.6531,0.6533,0.6539,0.654,0.6553,0.6555,0.6562,0.6572,0.6574,0.6576,0.6576,0.6598,0.6598,0.6598,0.6592,0.6591,0.6591,0,0,0,0,0,0.6487,0.6491,0.6495,0.6498,0.6516,0.6527,0.653,0.6538,0.6539,0.6542,0.655,0.6554,0.6575,0.6573,0.6576,0.6578,0.6598,0.6598,0.6598,0.6592,0.6591,0.6591,0,0,0,0,0,0,0.6477,0.6493,0.6497,0.6506,0.6515,0.6529,0.6532,0.6538,0.6546,0.6546,0.6556,0.6559,0.6568,0.6574,0.6571,0.6585,0.6587,0.6587,0.6581,0.6581,0.658,0.6578,0.6577,0,0,0,0,0,0.6475,0.6483,0.6498,0.6504,0.6508,0.652,0.6525,0.6531,0.6541,0.6544,0.6553,0.6562,0.6571,0.6576,0.6585,0.6593,0.6596,0.6596,0.6596,0.6595,0.6596,0.6601,0.6602,0.6599,0.6599,0.6599,0,0,0.6473,0.6483,0.6487,0.6502,0.651,0.6518,0.6523,0.6531,0.6537,0.6546,0.6555,0.6562,0.6573,0.6582,0.6586,0.6587,0.6597,0.6596,0.6595,0.6596,0.6602,0.6602,0.6602,0.6599,0.6599,0.6599,0,0,0.6472,0.648,0.6487,0.6495,0.6507,0.6515,0.6517,0.653,0.6535,0.6545,0.6552,0.656,0.6574,0.6582,0.6587,0.6591,0.6596,0.6594,0.6593,0.6598,0.6598,0.6598,0.66,0.66,0.6594,0.6594,0.6594,0,0.6466,0.6479,0.6489,0.6497,0.6504,0.6513,0.652,0.6527,0.6542,0.6546,0.6547,0.6566,0.6574,0.6585,0.6587,0.6591,0.6593,0.6592,0.6597,0.6598,0.6598,0.6599,0.66,0.6594,0.6594,0.6594,0.6594,0,0.6472,0.6481,0.6485,0.6499,0.6506,0.6514,0.6525,0.6531,0.6537,0.6545,0.6555,0.6565,0.6577,0.658,0.6585,0.6592,0.6593,0.6595,0.6597,0.6598,0.6599,0.66,0.6594,0.6594,0.6594,0.6594,0,0,0.6463,0.6485,0.6486,0.6493,0.6508,0.6515,0.6523,0.6535,0.654,0.655,0.6557,0.657,0.6573,0.658,0.6587,0.6591,0.6594,0.6594,0.6594,0.6593,0.6603,0.6601,0.6601,0.6598,0.6598,0.6598,0.6602,0,0.6464,0.6479,0.649,0.6501,0.651,0.652,0.6527,0.6537,0.6545,0.6553,0.6562,0.6571,0.6574,0.6579,0.6584,0.6593,0.6596,0.6593,0.6604,0.6604,0.6601,0.6602,0.6599,0.6602,0.6603,0.6603,0.6603,0,0.6467,0.6477,0.649,0.6505,0.6509,0.6516,0.6528,0.6536,0.6548,0.6553,0.6562,0.6569,0.6578,0.658,0.6593,0.659,0.6596,0.6601,0.6601,0.6602,0.6603,0.6602,0.6604,0.6604,0.6604,0.6604,0.6604,0,0.6459,0.6477,0.6487,0.6492,0.6511,0.6515,0.6523,0.6535,0.6542,0.6552,0.6557,0.6568,0.6575,0.6583,0.6593,0.6594,0.6606,0.6608,0.661,0.661,0.6612,0.6611,0.6613,0.6616,0.6616,0.6616,0.6616,0,0.6458,0.6466,0.6484,0.6489,0.6498,0.651,0.6519,0.6527,0.6538,0.6546,0.6555,0.6563,0.6576,0.6585,0.6593,0.6603,0.6605,0.661,0.6612,0.6609,0.6608,0.6612,0.6612,0.6616,0.6616,0.6616,0.6616,0,0.6451,0.6463,0.6475,0.6492,0.6496,0.6502,0.6516,0.6523,0.6532,0.6542,0.6545,0.6559,0.657,0.6582,0.6596,0.6602,0.6611,0.6614,0.6607,0.6608,0.661,0.661,0.6614,0.6616,0.6618,0.6618,0.6618,0,0.6449,0.6455,0.6473,0.648,0.6488,0.6498,0.6505,0.6518,0.6525,0.654,0.6545,0.6557,0.6567,0.6585,0.6596,0.6608,0.6611,0.6612,0.6612,0.661,0.6611,0.661,0.6611,0.6611,0.6611,0.6611,0.6611,0,0.6445,0.6451,0.6462,0.6475,0.6484,0.6495,0.6506,0.6511,0.6526,0.6533,0.6545,0.6554,0.657,0.6581,0.6595,0.6603,0.6609,0.6611,0.6612,0.6608,0.6604,0.6606,0.6606,0.661,0.661,0.661,0.661,0.661,0.644,0.6446,0.6461,0.6472,0.6483,0.6493,0.65,0.6511,0.6522,0.6536,0.6543,0.6555,0.6568,0.6587,0.6595,0.6605,0.6606,0.6608,0.6608,0.6608,0.6608,0.6603,0.6607,0.6607,0.6607,0.6607,0.6607,0,0.6437,0.6447,0.6458,0.6474,0.6483,0.649,0.6503,0.651,0.6521,0.6533,0.6544,0.6558,0.657,0.6583,0.6596,0.6601,0.6605,0.6604,0.6604,0.6605,0.6605,0.6603,0.6601,0.6601,0.6601,0.6601,0.6601,0.6601,0.6436,0.6447,0.6455,0.6472,0.6482,0.6494,0.6501,0.6511,0.6521,0.6537,0.6547,0.6556,0.6569,0.6583,0.6595,0.6598,0.6602,0.6601,0.6605,0.6605,0.6605,0.6606,0.6604,0.6602,0.6602,0.6605,0.6605,0.6605]},{"header":{"parameterUnit":"m.s-1","parameterCategory":1,"la1":30.2991,"la2":30.254,"lo1":-89.0895,"lo2":-89.0444,"dy":0.0017,"dx":0.0017,"nx":28,"ny":28,"refTime":"2025-04-09T09:00:00:Z","depth":0,"parameterNumber":3,"parameterNumberName":"V-component_of_WINDS"},"data":[0,0,0,0,0,0,0,0,0,0,0,0,0,0,0,0,0,0,0,0,0,0,0,0,0,0,0,0,0,0,0,0,0,0,0,0,0,0,0,0,0,0,0,0,0,0,0,0,0,0,0,0,0,0,0,0,0,0,-5.8169,-5.8171,0,-5.8366,-5.8368,-5.837,-5.8297,-5.8292,-5.8288,-5.8283,-5.8483,-5.8492,-5.8502,0,0,0,0,0,0,0,0,0,0,0,0,0,-5.7729,-5.7737,-5.8169,-5.8172,-5.8174,-5.8366,-5.8368,-5.8371,-5.8297,-5.8292,-5.8287,-5.8281,-5.848,-5.8491,-5.8503,0,0,0,0,0,0,0,0,0,0,0,0,0,-5.7922,-5.774,-5.8169,-5.8161,-5.8162,-5.8365,-5.8368,-5.8372,-5.8299,-5.8292,-5.8285,-5.8279,-5.8476,-5.849,-5.8504,-5.8727,0,0,-5.8548,-5.8554,0,0,0,0,0,0,0,0,-5.7911,-5.7938,-5.8159,-5.8161,-5.8163,-5.83,-5.8286,-5.8491,-5.83,-5.8247,-5.8283,-5.8276,-5.8428,-5.8445,-5.8497,-5.8736,-5.8745,-5.8549,-5.8558,-5.8564,-5.8568,0,0,0,0,0,0,0,-5.7898,-5.793,-5.8247,-5.8163,-5.8165,-5.8147,-5.8167,-5.8325,-5.8372,-5.8251,-5.8246,-5.827,-5.8427,-5.8483,-5.8501,-5.8748,-5.8549,-5.8561,-5.857,-5.8576,-5.918,-5.9187,0,0,0,0,0,0,-5.7884,-5.7919,-5.8241,-5.8253,-5.8018,-5.816,-5.8182,-5.8263,-5.837,-5.838,-5.8276,-5.8266,-5.8462,-5.8485,-5.8508,-5.8776,-5.8564,-5.8577,-5.8585,-5.9173,-5.9182,-5.919,0,0,0,0,0,0,-5.7875,-5.7913,-5.8233,-5.8085,-5.8124,-5.8175,-5.8266,-5.827,-5.8326,-5.8389,-5.8397,-5.8325,-5.8458,-5.8488,-5.8673,-5.8782,-5.8584,-5.8597,-5.9164,-5.9176,-5.9186,-5.9315,0,0,0,0,0,0,-5.7862,-5.7911,-5.7996,-5.8087,-5.8132,-5.8396,-5.8272,-5.8279,-5.8351,-5.834,-5.8437,-5.8447,-5.8455,-5.8652,-5.8688,-5.8798,-5.8608,-5.9154,-5.9169,-5.9182,-5.9301,-5.9329,-5.9353,0,0,0,0,0,-5.7847,-5.8024,-5.8001,-5.804,-5.824,-5.8402,-5.8428,-5.8434,-5.836,-5.8447,-5.8487,-5.8444,-5.8765,-5.8672,-5.8711,-5.8828,-5.9148,-5.9165,-5.9181,-5.9289,-5.9324,-5.9353,0,0,0,0,0,0,-5.7944,-5.8036,-5.8011,-5.8223,-5.8305,-5.8389,-5.8498,-5.847,-5.8575,-5.856,-5.8563,-5.8586,-5.8777,-5.882,-5.8716,-5.9049,-5.8945,-5.897,-5.9014,-5.9047,-5.9072,-5.9058,-5.8619,0,0,0,0,0,-5.799,-5.8114,-5.8187,-5.8367,-5.841,-5.8447,-5.8518,-5.8516,-5.8601,-5.8636,-5.869,-5.8774,-5.8893,-5.8972,-5.9086,-5.9307,-5.9327,-5.9406,-5.9432,-5.9453,-5.9475,-5.9596,-5.9632,-5.9245,-5.9245,-5.9245,0,0,-5.8086,-5.8151,-5.823,-5.8388,-5.8452,-5.8581,-5.8477,-5.8617,-5.8713,-5.8657,-5.8836,-5.8878,-5.8972,-5.9177,-5.9269,-5.9219,-5.9587,-5.9475,-5.9491,-5.9502,-5.9617,-5.9654,-5.9686,-5.9257,-5.9255,-5.9253,0,0,-5.8327,-5.8389,-5.8546,-5.8612,-5.871,-5.8734,-5.8772,-5.8861,-5.8887,-5.9067,-5.9028,-5.9141,-5.9347,-5.9416,-5.9478,-5.9746,-5.971,-5.9783,-5.9919,-6.0037,-6.0067,-6.0094,-6.0191,-6.0225,-5.9804,-5.9805,-5.9805,0,-5.8434,-5.8627,-5.863,-5.8775,-5.8845,-5.8801,-5.896,-5.9024,-5.9154,-5.9204,-5.9146,-5.9404,-5.9464,-5.9684,-5.975,-5.9801,-5.9845,-5.9772,-6.0062,-6.009,-6.0115,-6.0207,-6.0243,-5.9813,-5.9812,-5.9811,-5.9811,0,-5.8754,-5.8888,-5.9003,-5.9131,-5.9215,-5.9366,-5.9392,-5.9476,-5.9467,-5.9497,-5.968,-5.9751,-5.9878,-5.993,-5.9922,-6.015,-6.0116,-6.006,-5.9956,-6.016,-6.0247,-6.0282,-5.9825,-5.9822,-5.9819,-5.9817,0,0,-5.9062,-5.919,-5.9232,-5.929,-5.9395,-5.9499,-5.9648,-5.9773,-5.9846,-5.9937,-6.0062,-6.0238,-6.0187,-6.0258,-6.0257,-6.036,-6.0569,-6.0292,-6.0294,-6.0341,-6.0825,-6.0867,-6.0908,-6.0545,-6.0552,-6.0557,-6.0818,0,-5.9312,-5.9574,-5.9582,-5.9821,-5.9946,-5.9906,-6.0035,-6.0114,-6.0146,-6.0256,-6.029,-6.0415,-6.0339,-6.0381,-6.0481,-6.0522,-6.0666,-6.0503,-6.0662,-6.0668,-6.0641,-6.0953,-6.0998,-6.124,-6.0851,-6.0857,-6.0861,0,-5.9639,-5.9742,-5.9994,-6.0082,-6.0135,-6.0251,-6.0367,-6.0473,-6.0561,-6.0577,-6.0656,-6.064,-6.0792,-6.0682,-6.0891,-6.0781,-6.0846,-6.0876,-6.0885,-6.0901,-6.0777,-6.0978,-6.1317,-6.1354,-6.0914,-6.091,-6.0906,0,-5.984,-6.0041,-6.0218,-6.0268,-6.0375,-6.0458,-6.0507,-6.0588,-6.0663,-6.0764,-6.0813,-6.093,-6.0995,-6.1086,-6.1102,-6.102,-6.1312,-6.1203,-6.133,-6.133,-6.1394,-6.139,-6.1749,-6.1434,-6.1434,-6.1433,-6.1432,0,-6.0119,-6.0275,-6.031,-6.0419,-6.0593,-6.06,-6.0771,-6.0813,-6.0886,-6.1003,-6.0974,-6.1084,-6.1098,-6.1212,-6.1225,-6.1397,-6.1426,-6.1443,-6.1445,-6.1446,-6.1444,-6.149,-6.1474,-6.1443,-6.1441,-6.1439,-6.1437,0,-6.0372,-6.0402,-6.0593,-6.0678,-6.0704,-6.0828,-6.0901,-6.1006,-6.1034,-6.1182,-6.1217,-6.1263,-6.1395,-6.142,-6.1575,-6.1584,-6.179,-6.1774,-6.176,-6.1759,-6.1885,-6.1873,-6.2287,-6.2342,-6.199,-6.1993,-6.1996,0,-6.0549,-6.0669,-6.0768,-6.0844,-6.0897,-6.102,-6.1097,-6.1108,-6.1189,-6.1299,-6.1391,-6.152,-6.1624,-6.1837,-6.1883,-6.2002,-6.199,-6.2127,-6.2008,-6.2006,-6.1993,-6.1986,-6.1999,-6.215,-6.2154,-6.2157,-6.2159,0,-6.086,-6.0869,-6.0981,-6.11,-6.1192,-6.1286,-6.1374,-6.1438,-6.1461,-6.1553,-6.1689,-6.177,-6.1929,-6.2058,-6.2177,-6.2226,-6.2198,-6.2196,-6.2232,-6.2235,-6.2223,-6.2233,-6.1824,-6.2187,-6.2184,-6.2182,-6.2181,-6.2179,-6.1081,-6.1186,-6.1273,-6.1399,-6.1467,-6.155,-6.1653,-6.1695,-6.1808,-6.194,-6.1939,-6.2087,-6.2173,-6.2329,-6.2386,-6.2502,-6.2458,-6.251,-6.2523,-6.2536,-6.2549,-6.2204,-6.2523,-6.2523,-6.2522,-6.2521,-6.2521,0,-6.1392,-6.1445,-6.1562,-6.1687,-6.1786,-6.1751,-6.1847,-6.1933,-6.2064,-6.2146,-6.2249,-6.2405,-6.253,-6.2587,-6.271,-6.2792,-6.2782,-6.2824,-6.2818,-6.2831,-6.258,-6.2537,-6.283,-6.283,-6.283,-6.283,-6.283,-6.283,-6.1565,-6.1741,-6.176,-6.1969,-6.2021,-6.2167,-6.2225,-6.2302,-6.2368,-6.2544,-6.2648,-6.2684,-6.2756,-6.2884,-6.2998,-6.3011,-6.3058,-6.3107,-6.3114,-6.2879,-6.2848,-6.2818,-6.2778,-6.3117,-6.3117,-6.3355,-6.3357,-6.3359]}]]